{"data":{"norad_id":48367,"epoch":"2026-05-24T20:25:47.063424Z","epoch_age_seconds":94630,"freshness":"FRESH","line1":"1 48367U 21038Q   26144.85123916  .00005190  00000+0  17882-3 0  9997","line2":"2 48367  53.1613 351.1685 0001361  94.2259 265.8898 15.31710664278928","mean_motion":15.31710664,"eccentricity":0.0001361,"inclination_deg":53.1613,"raan_deg":351.1685,"arg_perigee_deg":94.2259,"mean_anomaly_deg":265.8898,"bstar":0.00017882,"rev_number":27892,"period_min":94.012533427136,"perigee_km":469.77607874837,"apogee_km":471.64033441361,"semimajor_km":6848.845206581,"source":"CELESTRAK","updated_at":"2026-05-25T13:38:16.686987Z"}}